Regional Weather Roundup
Issued by NWS Upton, NY

Current Version | Previous Version | Text Only | Print | Product List | Glossary On
Versions: 1 2 3 4 5 6 7 8 9 10 11 12 13 14 15 16 17 18 19 20 21 22 23 24 25 26 27 28 29 30 31 32 33 34 35 36 37 38 39 40 41 42 43 44 45 46 47
000
ASUS41 KOKX 271805
RWROKX

REGIONAL WEATHER ROUNDUP
NATIONAL WEATHER SERVICE NEW YORK NY
100 PM EST FRI FEB 27 2015

NOTE: "FAIR" INDICATES FEW OR NO CLOUDS BELOW 12,000 FEET WITH NO
SIGNIFICANT WEATHER AND/OR OBSTRUCTIONS TO VISIBILITY.

NYZ071-072-176-178-NJZ106-104-271900-
NEW YORK CITY METRO AREA


CITY           SKY/WX    TMP DP  RH WIND       PRES   REMARKS
CENTRAL PARK   NOT AVBL
LAGUARDIA APRT MOSUNNY   27   8  44 NW7       30.39S WCI  19
KENNEDY INTL   MOSUNNY   28   8  43 N8        30.40F WCI  20
NEWARK/LIBERTY MOSUNNY   27   7  42 VRB5G16   30.39F WCI  22
BRNX BOT. GARD   N/A    N/A N/A N/A N10       30.38F
TETERBORO      SUNNY     26   3  37 NW12      30.39S WCI  16
$$

NYZ177-179-078>081-271900-
LONG ISLAND NEW YORK

CITY           SKY/WX    TMP DP  RH WIND       PRES   REMARKS
FARMINGDALE    SUNNY     26   6  42 N9        30.38F WCI  17
ISLIP          MOSUNNY   25   5  42 NW12      30.36F WCI  14
SHIRLEY        SUNNY     25   6  44 NW9       30.37F WCI  15
WESTHAMPTON    SUNNY     24   7  48 NW9       30.37F WCI  14
MONTAUK POINT  NOT AVBL
$$

NYZ052-065-067-271900-
HUDSON VALLEY

CITY           SKY/WX    TMP DP  RH WIND       PRES   REMARKS
WHITE PLAINS   SUNNY     22   1  40 W8        30.35S WCI  12
NEWBURGH       NOT AVBL
MONTGOMERY     SUNNY     24   1  36 VRB3      30.35F
POUGHKEEPSIE   SUNNY     23  -1  35 NW6       30.39F WCI  16
ALBANY         MOSUNNY   19  -1  41 W14       30.40F WCI   6
$$

NJZ001-105-106-008-010-013-015-019>022-104-271900-
NEW JERSEY

CITY           SKY/WX    TMP DP  RH WIND       PRES   REMARKS
NEWARK/LIBERTY MOSUNNY   27   7  42 VRB5G16   30.39F WCI  22
TETERBORO      SUNNY     26   3  37 NW12      30.39S WCI  16
CALDWELL       SUNNY     25   1  35 SW3       30.39F
MORRISTOWN     NOT AVBL
SOMERVILLE     SUNNY     27   2  34 NW12      30.38F WCI  17
SUSSEX         SUNNY     24   2  38 NW7       30.37S WCI  16
ANDOVER          N/A     24   1  36 W6        30.36F WCI  17
TRENTON        SUNNY     26   6  42 N8        30.40S WCI  18
MILLVILLE      MOSUNNY   31  18  58 N12G17    30.40S WCI  22
ATLANTIC CITY  MOSUNNY   31  18  58 NW8       30.39S WCI  23
WRIGHTSTOWN    SUNNY     28  11  49 NW14      30.37F WCI  17
TOMS RIVER     SUNNY     30  14  51 W13       30.39S WCI  20
BELMAR         MOSUNNY   28  10  47 NW8G17    30.38S WCI  20
$$

PAZ047>061-062-071-271900-
EASTERN PENNSYLVANIA

CITY           SKY/WX    TMP DP  RH WIND       PRES   REMARKS
PHILADELPHIA   MOSUNNY   29   9  43 NW13G18   30.43F WCI  19
ALLENTOWN      SUNNY     25   2  37 NW9       30.39F WCI  15
SCRANTON       MOSUNNY   20   2  45 NE5       30.37F WCI  13
$$

CTZ002-004>006-009-010-012-RIZ004-006-007-MAZ004-011-015-271900-
SOUTHERN NEW ENGLAND
 IN CT

CITY           SKY/WX    TMP DP  RH WIND       PRES   REMARKS
BRADLEY INTL   MOSUNNY   27   1  32 VRB3      30.33F
HARTFORD       SUNNY     25   3  38 SE5       30.36F WCI  19
DANBURY        SUNNY     21  -5  31 NW9       30.36F WCI  11
WTRBRY/OXFORD  SUNNY     21  -4  33 N9        30.32F WCI  11
BRIDGEPORT     SUNNY     26   2  35 NW10      30.37F WCI  16
MERIDEN        SUNNY     25   0  33 CALM      30.36F
NEW HAVEN      SUNNY     26   1  34 NW7       30.36F WCI  18
CHESTER        FAIR      25   3  39 N8        30.33F WCI  16
GROTON         SUNNY     27   8  44 CALM      30.34F
WILLIMANTIC    SUNNY     24   3  40 W8        30.33F WCI  15

 IN RI

CITY           SKY/WX    TMP DP  RH WIND       PRES   REMARKS
PROVIDENCE     PTSUNNY   28   4  35 NW5       30.32F WCI  23
BLOCK ISLAND   SUNNY     27   9  46 W7        30.32F WCI  19
WESTERLY       SUNNY     27   5  39 VRB6      30.34F WCI  20

 IN MA

CITY           SKY/WX    TMP DP  RH WIND       PRES   REMARKS
BOSTON         MOSUNNY   23  -3  32 NW12      30.34F WCI  12
WORCESTER      SUNNY     20  -3  36 NW9       30.25F WCI   9
WESTFIELD      SUNNY     24  -2  32 NW13      30.33F WCI  12
PROVINCETOWN   SUNNY     23   7  50 NW12      30.34S WCI  12
NANTUCKET      SUNNY     26  10  50 N9        30.33S WCI  17
$$

ANZ330-335-338-340-345-350-353-355-271900-
COASTAL MARINE OBSERVATIONS


STATION/POSITION TIME  SKY/WX   TEMP    WIND        PRES    VSBY  WAVE
                                AIR SEA DIR/SP/G                  HT/PER
                 (UTC)          (F)     (DEG/KT/KT) (MB)    (MI)  (FT/S)
NY HARB ENTRANCE 1800            24 38  320/  8/ 12 1029.1          4/10
4S FIRE IS       NOT AVBL
20S FIRE ISLAND  1700               36              1029.7          6/11
23SW MTP         1800                                 N/A           5/11
HUDSON CANYON    NOT AVBL
EXECUTION ROCKS  NOT AVBL
WESTERN LI SOUND NOT AVBL
CENTRAL LI SOUND NOT AVBL
EASTERN LI SOUND NOT AVBL
ROBBINS REEF     1800            23      20/  4/  6 1028.0
$$


>>>>>>>>>>>>>>>>>>>>>>>>>>>> KEY <<<<<<<<<<<<<<<<<<<<<<<<<<<
>                                                          <
>     SKY/WX - SKY CONDITION/PRESENT WEATHER               <
>     TMP    - TEMPERATURE IN FAHRENHEIT                   <
>     DP     - DEWPOINT IN FAHRENHEIT                      <
>     RH     - RELATIVE HUMIDITY IN PERCENT                <
>     WIND   - DIRECTION AND SPEED IN MPH                  <
>     PRES   - MEAN SEA LEVEL PRESSURE IN INCHES OF HG     <
>     WCI    - WIND CHILL INDEX                            <
>     VSB    - VISIBILITY IN MILES                         <
>     HX     - HEAT INDEX                                  <
>     TC     - TEMPERATURE IN CELSIUS                      <
>     VRB    - VARIABLE WIND DIRECTION                     <
>                                                          <
>>>>>>>>>>>>>>>>>>>>>>>>>>>> KEY <<<<<<<<<<<<<<<<<<<<<<<<<<<





USA.gov is the U.S. government's official web portal to all federal, state and local government web resources and services.